| time (UTC) | temp F | wind direction | speed knots | gust knots | rain 1hr in | rain 24hr in | rain mn in | humidity % | barometer mb |
| 20260507213440 | 91 | 253 | 4.3 | 7.8 | 0.00 | 0.00 | 0.00 | 13 | 1011.3 |
| 20260507212937 | 91 | 277 | 5.2 | 7.0 | 0.00 | 0.00 | 0.00 | 13 | 1011.3 |
| 20260507212432 | 90 | 177 | 3.5 | 5.2 | 0.00 | 0.00 | 0.00 | 14 | 1011.4 |
| 20260507211930 | 91 | 241 | 8.7 | 8.7 | 0.00 | 0.00 | 0.00 | 13 | 1011.7 |
| 20260507211426 | 90 | 210 | 1.7 | 1.7 | 0.00 | 0.00 | 0.00 | 13 | 1011.7 |
| 20260507210923 | 91 | 263 | 7.8 | 9.6 | 0.00 | 0.00 | 0.00 | 14 | 1011.9 |
| 20260507210420 | 90 | 177 | 6.1 | 7.8 | 0.00 | 0.00 | 0.00 | 14 | 1011.8 |
| 20260507205917 | 90 | 227 | 5.2 | 6.1 | 0.00 | 0.00 | 0.00 | 14 | 1012.0 |
| 20260507205414 | 91 | 239 | 5.2 | 7.0 | 0.00 | 0.00 | 0.00 | 13 | 1012.0 |
| 20260507204910 | 91 | 237 | 7.8 | 8.7 | 0.00 | 0.00 | 0.00 | 13 | 1012.1 |
| 20260507204406 | 90 | 223 | 7.0 | 7.8 | 0.00 | 0.00 | 0.00 | 14 | 1012.2 |
| 20260507203904 | 90 | 174 | 7.0 | 9.6 | 0.00 | 0.00 | 0.00 | 14 | 1012.2 |
| 20260507203402 | 89 | 81 | 0.9 | 0.9 | 0.00 | 0.00 | 0.00 | 14 | 1012.3 |
| 20260507202858 | 90 | 132 | 2.6 | 3.5 | 0.00 | 0.00 | 0.00 | 14 | 1012.3 |
| 20260507202355 | 91 | 335 | 6.1 | 7.0 | 0.00 | 0.00 | 0.00 | 13 | 1012.6 |
| 20260507201850 | 90 | 223 | 3.5 | 5.2 | 0.00 | 0.00 | 0.00 | 13 | 1012.3 |
| 20260507201346 | 89 | 334 | 5.2 | 5.2 | 0.00 | 0.00 | 0.00 | 14 | 1012.3 |
| 20260507200842 | 91 | 196 | 7.0 | 8.7 | 0.00 | 0.00 | 0.00 | 13 | 1012.6 |
| 20260507200338 | 89 | 50 | 0.9 | 0.9 | 0.00 | 0.00 | 0.00 | 14 | 1012.6 |
| 20260507195835 | 89 | 75 | 2.6 | 2.6 | 0.00 | 0.00 | 0.00 | 14 | 1012.8 |
| 20260507195332 | 89 | 171 | 4.3 | 5.2 | 0.00 | 0.00 | 0.00 | 14 | 1012.9 |
| 20260507194829 | 89 | 145 | 3.5 | 3.5 | 0.00 | 0.00 | 0.00 | 14 | 1012.8 |
| 20260507194325 | 89 | 176 | 5.2 | 6.1 | 0.00 | 0.00 | 0.00 | 14 | 1013.0 |
| 20260507193822 | 89 | 117 | 3.5 | 3.5 | 0.00 | 0.00 | 0.00 | 14 | 1012.9 |
| 20260507193320 | 89 | 147 | 7.8 | 8.7 | 0.00 | 0.00 | 0.00 | 14 | 1013.1 |
| 20260507192815 | 90 | 253 | 5.2 | 7.0 | 0.00 | 0.00 | 0.00 | 14 | 1013.1 |
| 20260507192312 | 90 | 16 | 1.7 | 1.7 | 0.00 | 0.00 | 0.00 | 14 | 1013.3 |
| 20260507191808 | 89 | 31 | 0.9 | 1.7 | 0.00 | 0.00 | 0.00 | 14 | 1013.4 |
| 20260507191305 | 89 | 95 | 3.5 | 5.2 | 0.00 | 0.00 | 0.00 | 14 | 1013.5 |
| 20260507190802 | 87 | 17 | 0.9 | 0.9 | 0.00 | 0.00 | 0.00 | 15 | 1013.6 |
| 20260507190300 | 87 | 131 | 6.1 | 7.0 | 0.00 | 0.00 | 0.00 | 14 | 1013.7 |
| 20260507185758 | 89 | 163 | 6.1 | 7.8 | 0.00 | 0.00 | 0.00 | 14 | 1013.5 |
| 20260507185255 | 88 | 204 | 5.2 | 6.1 | 0.00 | 0.00 | 0.00 | 14 | 1013.7 |
| 20260507184752 | 88 | 101 | 7.0 | 8.7 | 0.00 | 0.00 | 0.00 | 14 | 1013.8 |
| 20260507184250 | 87 | 253 | 3.5 | 5.2 | 0.00 | 0.00 | 0.00 | 15 | 1013.7 |
| 20260507183747 | 88 | 186 | 4.3 | 7.0 | 0.00 | 0.00 | 0.00 | 15 | 1013.9 |
| 20260507183244 | 87 | 99 | 7.0 | 8.7 | 0.00 | 0.00 | 0.00 | 15 | 1013.8 |
| 20260507182741 | 88 | 200 | 2.6 | 3.5 | 0.00 | 0.00 | 0.00 | 15 | 1013.9 |
| 20260507182236 | 89 | 105 | 2.6 | 2.6 | 0.00 | 0.00 | 0.00 | 14 | 1014.0 |
| 20260507181733 | 87 | 17 | 1.7 | 2.6 | 0.00 | 0.00 | 0.00 | 15 | 1014.0 |
| 20260507181229 | 88 | 81 | 3.5 | 5.2 | 0.00 | 0.00 | 0.00 | 14 | 1014.0 |
| 20260507180726 | 88 | 194 | 3.5 | 3.5 | 0.00 | 0.00 | 0.00 | 14 | 1014.3 |
| 20260507180223 | 88 | 166 | 2.6 | 3.5 | 0.00 | 0.00 | 0.00 | 14 | 1013.9 |
| 20260507175718 | 87 | 202 | 5.2 | 6.1 | 0.00 | 0.00 | 0.00 | 15 | 1014.0 |
| 20260507175215 | 88 | 263 | 3.5 | 5.2 | 0.00 | 0.00 | 0.00 | 14 | 1014.4 |
| 20260507174713 | 86 | 278 | 4.3 | 5.2 | 0.00 | 0.00 | 0.00 | 15 | 1014.3 |
| 20260507174211 | 86 | 17 | 0.9 | 1.7 | 0.00 | 0.00 | 0.00 | 15 | 1014.3 |
| 20260507173708 | 85 | 114 | 1.7 | 2.6 | 0.00 | 0.00 | 0.00 | 15 | 1014.5 |
| 20260507173205 | 86 | 237 | 5.2 | 7.0 | 0.00 | 0.00 | 0.00 | 15 | 1014.4 |
| 20260507172701 | 86 | 170 | 4.3 | 6.1 | 0.00 | 0.00 | 0.00 | 15 | 1014.5 |
| 20260507172158 | 87 | 191 | 1.7 | 1.7 | 0.00 | 0.00 | 0.00 | 15 | 1014.5 |
| 20260507171653 | 84 | 61 | 1.7 | 1.7 | 0.00 | 0.00 | 0.00 | 16 | 1014.7 |
| 20260507171150 | 84 | 47 | 0.0 | 0.0 | 0.00 | 0.00 | 0.00 | 16 | 1014.6 |
| 20260507170647 | 85 | 159 | 6.1 | 7.8 | 0.00 | 0.00 | 0.00 | 16 | 1014.6 |
| 20260507170144 | 83 | 113 | 0.9 | 1.7 | 0.00 | 0.00 | 0.00 | 17 | 1014.4 |
| 20260507165640 | 84 | 143 | 2.6 | 2.6 | 0.00 | 0.00 | 0.00 | 16 | 1014.6 |
| 20260507165136 | 83 | 183 | 3.5 | 3.5 | 0.00 | 0.00 | 0.00 | 17 | 1014.7 |
| 20260507164632 | 83 | 56 | 0.9 | 1.7 | 0.00 | 0.00 | 0.00 | 17 | 1014.7 |
| 20260507164129 | 83 | 102 | 2.6 | 3.5 | 0.00 | 0.00 | 0.00 | 17 | 1014.6 |
| 20260507163626 | 83 | 319 | 2.6 | 2.6 | 0.00 | 0.00 | 0.00 | 18 | 1014.6 |
| 20260507163124 | 82 | 299 | 1.7 | 1.7 | 0.00 | 0.00 | 0.00 | 18 | 1014.8 |
| 20260507162619 | 81 | 16 | 1.7 | 1.7 | 0.00 | 0.00 | 0.00 | 19 | 1014.8 |
| 20260507162116 | 80 | 190 | 2.6 | 2.6 | 0.00 | 0.00 | 0.00 | 19 | 1014.8 |
| 20260507161612 | 81 | 47 | 0.9 | 0.9 | 0.00 | 0.00 | 0.00 | 19 | 1015.0 |
| 20260507161109 | 80 | 226 | 4.3 | 5.2 | 0.00 | 0.00 | 0.00 | 20 | 1015.0 |
| 20260507160606 | 80 | 223 | 6.1 | 7.0 | 0.00 | 0.00 | 0.00 | 20 | 1014.9 |
| 20260507155557 | 79 | 212 | 3.5 | 3.5 | 0.00 | 0.00 | 0.00 | 21 | 1015.0 |
| 20260507155054 | 80 | 189 | 2.6 | 2.6 | 0.00 | 0.00 | 0.00 | 21 | 1015.0 |
| 20260507154551 | 80 | 336 | 1.7 | 2.6 | 0.00 | 0.00 | 0.00 | 21 | 1015.1 |
| 20260507154048 | 79 | 134 | 5.2 | 6.1 | 0.00 | 0.00 | 0.00 | 21 | 1015.0 |
| 20260507153545 | 79 | 308 | 1.7 | 1.7 | 0.00 | 0.00 | 0.00 | 21 | 1015.1 |
| 20260507153041 | 79 | 82 | 3.5 | 5.2 | 0.00 | 0.00 | 0.00 | 21 | 1015.0 |
| 20260507152537 | 78 | 162 | 1.7 | 1.7 | 0.00 | 0.00 | 0.00 | 22 | 1015.0 |
| 20260507152034 | 78 | 282 | 1.7 | 2.6 | 0.00 | 0.00 | 0.00 | 23 | 1015.1 |
| 20260507151530 | 78 | 56 | 0.9 | 0.9 | 0.00 | 0.00 | 0.00 | 23 | 1014.9 |
| 20260507151027 | 77 | 6 | 1.7 | 2.6 | 0.00 | 0.00 | 0.00 | 24 | 1015.2 |
| 20260507150524 | 76 | 290 | 1.7 | 2.6 | 0.00 | 0.00 | 0.00 | 24 | 1015.2 |
| 20260507150021 | 75 | 293 | 2.6 | 3.5 | 0.00 | 0.00 | 0.00 | 25 | 1015.1 |
| 20260507145515 | 75 | 307 | 3.5 | 5.2 | 0.00 | 0.00 | 0.00 | 25 | 1015.2 |
| 20260507145014 | 74 | 347 | 3.5 | 5.2 | 0.00 | 0.00 | 0.00 | 26 | 1015.3 |
| 20260507144510 | 73 | 327 | 3.5 | 3.5 | 0.00 | 0.00 | 0.00 | 26 | 1015.0 |
| 20260507144008 | 73 | 323 | 3.5 | 3.5 | 0.00 | 0.00 | 0.00 | 26 | 1015.1 |
| 20260507143505 | 73 | 16 | 3.5 | 3.5 | 0.00 | 0.00 | 0.00 | 26 | 1015.1 |
| 20260507143002 | 72 | 352 | 3.5 | 5.2 | 0.00 | 0.00 | 0.00 | 27 | 1015.0 |
| 20260507142457 | 71 | 348 | 5.2 | 6.1 | 0.00 | 0.00 | 0.00 | 28 | 1014.8 |
| 20260507141954 | 70 | 31 | 1.7 | 1.7 | 0.00 | 0.00 | 0.00 | 28 | 1014.9 |
| 20260507141450 | 69 | 339 | 5.2 | 6.1 | 0.00 | 0.00 | 0.00 | 29 | 1014.9 |
| 20260507140947 | 69 | 35 | 6.1 | 7.0 | 0.00 | 0.00 | 0.00 | 29 | 1014.8 |
| 20260507140444 | 69 | 0 | 2.6 | 2.6 | 0.00 | 0.00 | 0.00 | 29 | 1014.9 |
| 20260507135941 | 68 | 359 | 5.2 | 6.1 | 0.00 | 0.00 | 0.00 | 29 | 1014.8 |
| 20260507135438 | 68 | 29 | 2.6 | 2.6 | 0.00 | 0.00 | 0.00 | 29 | 1014.9 |
| 20260507134935 | 68 | 6 | 1.7 | 1.7 | 0.00 | 0.00 | 0.00 | 30 | 1014.7 |
| 20260507134432 | 67 | 23 | 1.7 | 1.7 | 0.00 | 0.00 | 0.00 | 30 | 1014.7 |
| 20260507133928 | 66 | 39 | 0.9 | 1.7 | 0.00 | 0.00 | 0.00 | 31 | 1014.7 |
| 20260507133424 | 65 | 38 | 0.0 | 0.9 | 0.00 | 0.00 | 0.00 | 32 | 1014.7 |
| 20260507132923 | 64 | 336 | 2.6 | 3.5 | 0.00 | 0.00 | 0.00 | 33 | 1014.8 |
| 20260507132418 | 63 | 34 | 0.9 | 0.9 | 0.00 | 0.00 | 0.00 | 33 | 1014.6 |
| 20260507131915 | 62 | 25 | 0.9 | 0.9 | 0.00 | 0.00 | 0.00 | 34 | 1014.6 |
| 20260507131412 | 62 | 29 | 0.9 | 0.9 | 0.00 | 0.00 | 0.00 | 34 | 1014.7 |
| 20260507130909 | 61 | 13 | 0.9 | 1.7 | 0.00 | 0.00 | 0.00 | 35 | 1014.6 |
| 20260507130406 | 61 | 6 | 1.7 | 1.7 | 0.00 | 0.00 | 0.00 | 35 | 1014.5 |
| 20260507125905 | 61 | 15 | 0.0 | 0.9 | 0.00 | 0.00 | 0.00 | 35 | 1014.7 |
| 20260507125402 | 60 | 33 | 1.7 | 1.7 | 0.00 | 0.00 | 0.00 | 35 | 1014.4 |
| 20260507124900 | 60 | 17 | 0.9 | 0.9 | 0.00 | 0.00 | 0.00 | 35 | 1014.5 |
| 20260507124355 | 60 | 359 | 1.7 | 2.6 | 0.00 | 0.00 | 0.00 | 35 | 1014.7 |
| 20260507123854 | 60 | 8 | 0.9 | 1.7 | 0.00 | 0.00 | 0.00 | 36 | 1014.5 |
| 20260507123351 | 60 | 32 | 0.9 | 0.9 | 0.00 | 0.00 | 0.00 | 35 | 1014.6 |
| 20260507122847 | 61 | 15 | 0.9 | 0.9 | 0.00 | 0.00 | 0.00 | 35 | 1014.7 |
| 20260507122342 | 61 | 37 | 0.9 | 0.9 | 0.00 | 0.00 | 0.00 | 35 | 1014.6 |
| 20260507121839 | 61 | 15 | 1.7 | 1.7 | 0.00 | 0.00 | 0.00 | 35 | 1014.6 |
| 20260507121335 | 61 | 7 | 1.7 | 1.7 | 0.00 | 0.00 | 0.00 | 35 | 1014.8 |
| 20260507120832 | 61 | 31 | 1.7 | 1.7 | 0.00 | 0.00 | 0.00 | 35 | 1014.6 |
| 20260507120328 | 61 | 324 | 2.6 | 3.5 | 0.00 | 0.00 | 0.00 | 35 | 1014.7 |
| 20260507115824 | 62 | 10 | 1.7 | 1.7 | 0.00 | 0.00 | 0.00 | 34 | 1014.6 |
| 20260507115320 | 62 | 0 | 1.7 | 2.6 | 0.00 | 0.00 | 0.00 | 34 | 1014.7 |
| 20260507114816 | 62 | 32 | 1.7 | 1.7 | 0.00 | 0.00 | 0.00 | 34 | 1014.7 |
| 20260507114313 | 61 | 33 | 0.9 | 0.9 | 0.00 | 0.00 | 0.00 | 34 | 1014.8 |
| 20260507113811 | 61 | 35 | 0.0 | 0.0 | 0.00 | 0.00 | 0.00 | 35 | 1015.0 |
| 20260507113307 | 62 | 50 | 0.9 | 1.7 | 0.00 | 0.00 | 0.00 | 34 | 1014.9 |
| 20260507112805 | 62 | 36 | 0.0 | 0.9 | 0.00 | 0.00 | 0.00 | 34 | 1014.9 |
| 20260507112306 | 62 | 50 | 0.0 | 0.9 | 0.00 | 0.00 | 0.00 | 34 | 1014.9 |
| 20260507111800 | 62 | 40 | 0.0 | 0.9 | 0.00 | 0.00 | 0.00 | 34 | 1015.1 |
| 20260507111256 | 62 | 345 | 1.7 | 2.6 | 0.00 | 0.00 | 0.00 | 34 | 1015.1 |
| 20260507110752 | 63 | 31 | 1.7 | 1.7 | 0.00 | 0.00 | 0.00 | 33 | 1014.9 |
| 20260507110249 | 63 | 2 | 1.7 | 2.6 | 0.00 | 0.00 | 0.00 | 33 | 1015.0 |
| 20260507105746 | 63 | 25 | 1.7 | 1.7 | 0.00 | 0.00 | 0.00 | 33 | 1015.1 |
| 20260507105241 | 63 | 16 | 0.9 | 0.9 | 0.00 | 0.00 | 0.00 | 33 | 1015.0 |
| 20260507104739 | 63 | 18 | 1.7 | 1.7 | 0.00 | 0.00 | 0.00 | 33 | 1015.0 |
| 20260507104236 | 63 | 37 | 0.9 | 1.7 | 0.00 | 0.00 | 0.00 | 33 | 1015.0 |
| 20260507103732 | 63 | 20 | 1.7 | 2.6 | 0.00 | 0.00 | 0.00 | 33 | 1015.1 |
| 20260507103228 | 64 | 20 | 1.7 | 1.7 | 0.00 | 0.00 | 0.00 | 32 | 1015.1 |
| 20260507102724 | 63 | 19 | 1.7 | 1.7 | 0.00 | 0.00 | 0.00 | 33 | 1015.2 |
| 20260507102221 | 63 | 20 | 0.9 | 0.9 | 0.00 | 0.00 | 0.00 | 33 | 1015.3 |
| 20260507101717 | 63 | 7 | 0.9 | 0.9 | 0.00 | 0.00 | 0.00 | 33 | 1015.0 |
| 20260507101212 | 63 | 41 | 0.0 | 0.0 | 0.00 | 0.00 | 0.00 | 33 | 1015.2 |
| 20260507100710 | 62 | 55 | 0.9 | 0.9 | 0.00 | 0.00 | 0.00 | 33 | 1015.2 |
| 20260507100208 | 62 | 45 | 0.0 | 0.0 | 0.00 | 0.00 | 0.00 | 33 | 1015.0 |
| 20260507095706 | 62 | 26 | 0.9 | 0.9 | 0.00 | 0.00 | 0.00 | 33 | 1015.2 |
| 20260507095202 | 62 | 32 | 0.9 | 1.7 | 0.00 | 0.00 | 0.00 | 32 | 1015.1 |
| 20260507094659 | 63 | 22 | 0.9 | 0.9 | 0.00 | 0.00 | 0.00 | 32 | 1015.0 |
| 20260507094155 | 63 | 52 | 0.9 | 0.9 | 0.00 | 0.00 | 0.00 | 33 | 1015.2 |
| 20260507093653 | 63 | 38 | 0.0 | 0.9 | 0.00 | 0.00 | 0.00 | 32 | 1015.3 |
| 20260507093152 | 63 | 20 | 0.9 | 0.9 | 0.00 | 0.00 | 0.00 | 33 | 1015.2 |
| 20260507092648 | 63 | 37 | 0.9 | 0.9 | 0.00 | 0.00 | 0.00 | 32 | 1015.3 |
| 20260507092145 | 64 | 37 | 0.0 | 0.0 | 0.00 | 0.00 | 0.00 | 32 | 1015.3 |
| 20260507091641 | 64 | 49 | 0.0 | 0.0 | 0.00 | 0.00 | 0.00 | 32 | 1015.2 |
| 20260507091137 | 64 | 45 | 0.0 | 0.0 | 0.00 | 0.00 | 0.00 | 32 | 1015.4 |
| 20260507090633 | 64 | 25 | 0.9 | 0.9 | 0.00 | 0.00 | 0.00 | 31 | 1015.2 |
| 20260507090131 | 65 | 10 | 2.6 | 2.6 | 0.00 | 0.00 | 0.00 | 31 | 1015.3 |
| 20260507085627 | 65 | 12 | 1.7 | 1.7 | 0.00 | 0.00 | 0.00 | 31 | 1015.4 |
| 20260507085124 | 64 | 22 | 0.9 | 0.9 | 0.00 | 0.00 | 0.00 | 31 | 1015.4 |
| 20260507084621 | 65 | 39 | 0.0 | 0.0 | 0.00 | 0.00 | 0.00 | 31 | 1015.5 |
| 20260507084118 | 65 | 51 | 0.0 | 0.0 | 0.00 | 0.00 | 0.00 | 31 | 1015.5 |
| 20260507083614 | 66 | 38 | 0.0 | 0.9 | 0.00 | 0.00 | 0.00 | 30 | 1015.6 |
| 20260507083106 | 66 | 40 | 0.9 | 0.9 | 0.00 | 0.00 | 0.00 | 30 | 1015.7 |
| 20260507082601 | 67 | 23 | 1.7 | 1.7 | 0.00 | 0.00 | 0.00 | 30 | 1015.6 |
| 20260507082058 | 67 | 13 | 0.9 | 0.9 | 0.00 | 0.00 | 0.00 | 30 | 1015.6 |
| 20260507081554 | 67 | 13 | 1.7 | 1.7 | 0.00 | 0.00 | 0.00 | 29 | 1015.5 |
| 20260507081051 | 67 | 353 | 1.7 | 1.7 | 0.00 | 0.00 | 0.00 | 30 | 1015.6 |
| 20260507080547 | 66 | 36 | 0.9 | 1.7 | 0.00 | 0.00 | 0.00 | 29 | 1015.7 |
| 20260507080044 | 66 | 0 | 0.9 | 0.9 | 0.00 | 0.00 | 0.00 | 30 | 1015.7 |
| 20260507075539 | 64 | 22 | 1.7 | 1.7 | 0.00 | 0.00 | 0.00 | 30 | 1015.7 |
| 20260507075036 | 66 | 352 | 1.7 | 2.6 | 0.00 | 0.00 | 0.00 | 29 | 1015.5 |
| 20260507074533 | 66 | 24 | 0.9 | 0.9 | 0.00 | 0.00 | 0.00 | 29 | 1015.6 |
| 20260507074031 | 66 | 31 | 0.9 | 0.9 | 0.00 | 0.00 | 0.00 | 30 | 1015.5 |
| 20260507073526 | 66 | 30 | 0.0 | 0.0 | 0.00 | 0.00 | 0.00 | 30 | 1015.5 |
| 20260507073023 | 66 | 20 | 0.0 | 0.9 | 0.00 | 0.00 | 0.00 | 29 | 1015.5 |
| 20260507072521 | 66 | 15 | 0.9 | 0.9 | 0.00 | 0.00 | 0.00 | 29 | 1015.5 |
| 20260507072018 | 67 | 37 | 0.0 | 0.0 | 0.00 | 0.00 | 0.00 | 29 | 1015.6 |
| 20260507071515 | 67 | 39 | 0.0 | 0.9 | 0.00 | 0.00 | 0.00 | 29 | 1015.8 |
| 20260507071012 | 68 | 46 | 0.0 | 0.0 | 0.00 | 0.00 | 0.00 | 28 | 1015.6 |
| 20260507070509 | 67 | 38 | 0.0 | 0.0 | 0.00 | 0.00 | 0.00 | 29 | 1015.6 |
| 20260507070010 | 67 | 39 | 0.0 | 0.0 | 0.00 | 0.00 | 0.00 | 29 | 1015.8 |
| 20260507065503 | 66 | 40 | 0.0 | 0.0 | 0.00 | 0.00 | 0.00 | 29 | 1015.5 |
| 20260507065000 | 66 | 37 | 0.0 | 0.0 | 0.00 | 0.00 | 0.00 | 29 | 1015.5 |
| 20260507064458 | 67 | 41 | 0.0 | 0.0 | 0.00 | 0.00 | 0.00 | 29 | 1015.6 |
| 20260507063956 | 69 | 32 | 0.0 | 0.0 | 0.00 | 0.00 | 0.00 | 28 | 1015.8 |
| 20260507063452 | 68 | 67 | 0.9 | 0.9 | 0.00 | 0.00 | 0.00 | 28 | 1015.6 |
| 20260507062949 | 67 | 64 | 0.9 | 0.9 | 0.00 | 0.00 | 0.00 | 28 | 1015.4 |
| 20260507062446 | 68 | 72 | 1.7 | 1.7 | 0.00 | 0.00 | 0.00 | 28 | 1015.6 |
| 20260507061944 | 69 | 45 | 0.0 | 0.0 | 0.00 | 0.00 | 0.00 | 28 | 1015.4 |
| 20260507061442 | 69 | 38 | 0.0 | 0.0 | 0.00 | 0.00 | 0.00 | 28 | 1015.5 |
| 20260507060940 | 68 | 45 | 0.0 | 0.9 | 0.00 | 0.00 | 0.00 | 28 | 1015.6 |
| 20260507060436 | 68 | 65 | 0.9 | 0.9 | 0.00 | 0.00 | 0.00 | 28 | 1015.6 |
| 20260507055933 | 67 | 73 | 1.7 | 1.7 | 0.00 | 0.00 | 0.00 | 28 | 1015.4 |
| 20260507055428 | 68 | 54 | 0.0 | 0.9 | 0.00 | 0.00 | 0.00 | 28 | 1015.5 |
| 20260507054925 | 66 | 53 | 0.0 | 0.9 | 0.00 | 0.00 | 0.00 | 28 | 1015.5 |
| 20260507054421 | 66 | 75 | 1.7 | 1.7 | 0.00 | 0.00 | 0.00 | 28 | 1015.5 |
| 20260507053919 | 67 | 60 | 0.9 | 0.9 | 0.00 | 0.00 | 0.00 | 28 | 1015.4 |
| 20260507053416 | 68 | 61 | 0.9 | 0.9 | 0.00 | 0.00 | 0.00 | 28 | 1015.4 |
| 20260507052915 | 71 | 59 | 1.7 | 1.7 | 0.00 | 0.00 | 0.00 | 27 | 1015.6 |
| 20260507052412 | 71 | 39 | 0.0 | 0.0 | 0.00 | 0.00 | 0.00 | 27 | 1015.5 |
| 20260507051908 | 71 | 37 | 0.0 | 0.0 | 0.00 | 0.00 | 0.00 | 27 | 1015.6 |
| 20260507051406 | 72 | 33 | 0.0 | 0.9 | 0.00 | 0.00 | 0.00 | 26 | 1015.5 |
| 20260507050903 | 72 | 31 | 0.0 | 0.0 | 0.00 | 0.00 | 0.00 | 26 | 1015.4 |
| 20260507050359 | 72 | 29 | 0.0 | 0.9 | 0.00 | 0.00 | 0.00 | 26 | 1015.4 |
| 20260507045856 | 72 | 33 | 0.0 | 0.0 | 0.00 | 0.00 | 0.00 | 26 | 1015.2 |
| 20260507045353 | 73 | 17 | 0.9 | 0.9 | 0.00 | 0.00 | 0.00 | 26 | 1015.3 |
| 20260507044850 | 73 | 341 | 0.9 | 1.7 | 0.00 | 0.00 | 0.00 | 26 | 1015.2 |
| 20260507044346 | 73 | 1 | 0.9 | 0.9 | 0.00 | 0.00 | 0.00 | 26 | 1015.3 |
| 20260507043842 | 73 | 10 | 0.9 | 0.9 | 0.00 | 0.00 | 0.00 | 26 | 1015.2 |
| 20260507043339 | 73 | 358 | 0.9 | 1.7 | 0.00 | 0.00 | 0.00 | 26 | 1015.3 |
| 20260507042836 | 73 | 20 | 0.9 | 0.9 | 0.00 | 0.00 | 0.00 | 26 | 1015.2 |
| 20260507042331 | 73 | 2 | 0.9 | 0.9 | 0.00 | 0.00 | 0.00 | 25 | 1015.1 |
| 20260507041828 | 74 | 7 | 1.7 | 1.7 | 0.00 | 0.00 | 0.00 | 25 | 1015.1 |
| 20260507041325 | 74 | 338 | 1.7 | 1.7 | 0.00 | 0.00 | 0.00 | 25 | 1014.9 |
| 20260507040822 | 75 | 251 | 3.5 | 3.5 | 0.00 | 0.00 | 0.00 | 25 | 1014.9 |
| 20260507040318 | 75 | 20 | 1.7 | 2.6 | 0.00 | 0.00 | 0.00 | 25 | 1014.7 |
| 20260507035814 | 75 | 12 | 2.6 | 3.5 | 0.00 | 0.00 | 0.00 | 24 | 1014.6 |
| 20260507035310 | 75 | 305 | 2.6 | 3.5 | 0.00 | 0.00 | 0.00 | 24 | 1014.6 |
| 20260507034808 | 75 | 249 | 1.7 | 2.6 | 0.00 | 0.00 | 0.00 | 24 | 1014.9 |
| 20260507034304 | 75 | 252 | 1.7 | 3.5 | 0.00 | 0.00 | 0.00 | 24 | 1014.6 |
| 20260507033803 | 75 | 229 | 3.5 | 3.5 | 0.00 | 0.00 | 0.00 | 24 | 1014.6 |
| 20260507033300 | 75 | 293 | 3.5 | 5.2 | 0.00 | 0.00 | 0.00 | 24 | 1014.5 |
| 20260507032757 | 75 | 263 | 1.7 | 2.6 | 0.00 | 0.00 | 0.00 | 24 | 1014.4 |
| 20260507032253 | 75 | 235 | 3.5 | 5.2 | 0.00 | 0.00 | 0.00 | 24 | 1014.1 |
| 20260507031749 | 76 | 237 | 4.3 | 6.1 | 0.00 | 0.00 | 0.00 | 24 | 1014.1 |
| 20260507031247 | 76 | 198 | 3.5 | 3.5 | 0.00 | 0.00 | 0.00 | 24 | 1014.1 |
| 20260507030743 | 76 | 218 | 1.7 | 2.6 | 0.00 | 0.00 | 0.00 | 24 | 1014.0 |
| 20260507030241 | 76 | 206 | 3.5 | 5.2 | 0.00 | 0.00 | 0.00 | 24 | 1014.0 |
| 20260507025738 | 76 | 211 | 3.5 | 5.2 | 0.00 | 0.00 | 0.00 | 24 | 1014.0 |
| 20260507025234 | 76 | 269 | 2.6 | 3.5 | 0.00 | 0.00 | 0.00 | 24 | 1013.8 |
| 20260507024733 | 76 | 178 | 1.7 | 1.7 | 0.00 | 0.00 | 0.00 | 24 | 1013.7 |
| 20260507024230 | 76 | 155 | 3.5 | 3.5 | 0.00 | 0.00 | 0.00 | 24 | 1013.8 |
| 20260507023725 | 77 | 169 | 1.7 | 2.6 | 0.00 | 0.00 | 0.00 | 24 | 1013.7 |
| 20260507023222 | 77 | 299 | 3.5 | 3.5 | 0.00 | 0.00 | 0.00 | 23 | 1013.8 |
| 20260507022720 | 77 | 124 | 2.6 | 3.5 | 0.00 | 0.00 | 0.00 | 23 | 1013.7 |
| 20260507022215 | 77 | 95 | 2.6 | 3.5 | 0.00 | 0.00 | 0.00 | 23 | 1013.6 |
| 20260507021712 | 78 | 249 | 3.5 | 3.5 | 0.00 | 0.00 | 0.00 | 23 | 1013.7 |
| 20260507021207 | 78 | 205 | 5.2 | 7.8 | 0.00 | 0.00 | 0.00 | 23 | 1013.4 |
| 20260507020706 | 78 | 231 | 6.1 | 7.8 | 0.00 | 0.00 | 0.00 | 23 | 1013.4 |
| 20260507020202 | 78 | 232 | 2.6 | 2.6 | 0.00 | 0.00 | 0.00 | 23 | 1013.4 |
| 20260507015700 | 79 | 157 | 7.0 | 7.8 | 0.00 | 0.00 | 0.00 | 23 | 1013.4 |
| 20260507015157 | 79 | 222 | 1.7 | 2.6 | 0.00 | 0.00 | 0.00 | 23 | 1013.4 |
| 20260507014653 | 79 | 54 | 3.5 | 3.5 | 0.00 | 0.00 | 0.00 | 22 | 1013.3 |
| 20260507014149 | 80 | 254 | 6.1 | 7.8 | 0.00 | 0.00 | 0.00 | 22 | 1013.5 |
| 20260507013646 | 80 | 171 | 2.6 | 3.5 | 0.00 | 0.00 | 0.00 | 22 | 1013.2 |
| 20260507013144 | 80 | 163 | 8.7 | 9.6 | 0.00 | 0.00 | 0.00 | 22 | 1013.3 |
| 20260507012641 | 80 | 200 | 7.8 | 9.6 | 0.00 | 0.00 | 0.00 | 22 | 1013.2 |
| 20260507012136 | 80 | 170 | 7.0 | 8.7 | 0.00 | 0.00 | 0.00 | 22 | 1013.4 |
| 20260507011635 | 80 | 162 | 6.1 | 7.8 | 0.00 | 0.00 | 0.00 | 22 | 1013.2 |
| 20260507011131 | 81 | 160 | 7.0 | 9.6 | 0.00 | 0.00 | 0.00 | 22 | 1013.0 |
| 20260507010625 | 81 | 241 | 6.1 | 7.8 | 0.00 | 0.00 | 0.00 | 22 | 1013.2 |
| 20260507010122 | 81 | 182 | 4.3 | 7.0 | 0.00 | 0.00 | 0.00 | 22 | 1013.1 |
| 20260507005619 | 81 | 213 | 6.1 | 7.0 | 0.00 | 0.00 | 0.00 | 22 | 1013.1 |
| 20260507005115 | 82 | 193 | 3.5 | 3.5 | 0.00 | 0.00 | 0.00 | 21 | 1012.9 |
| 20260507004612 | 80 | 182 | 6.1 | 7.8 | 0.00 | 0.00 | 0.00 | 22 | 1012.9 |
| 20260507004110 | 81 | 132 | 7.0 | 7.8 | 0.00 | 0.00 | 0.00 | 22 | 1012.9 |
| 20260507003606 | 81 | 194 | 3.5 | 6.1 | 0.00 | 0.00 | 0.00 | 22 | 1013.1 |
| 20260507003101 | 82 | 237 | 8.7 | 9.6 | 0.00 | 0.00 | 0.00 | 21 | 1013.1 |
| 20260507002558 | 82 | 238 | 6.1 | 7.8 | 0.00 | 0.00 | 0.00 | 22 | 1013.0 |
| 20260507002053 | 82 | 306 | 6.1 | 7.8 | 0.00 | 0.00 | 0.00 | 22 | 1013.1 |
| 20260507001550 | 81 | 274 | 6.1 | 7.8 | 0.00 | 0.00 | 0.00 | 21 | 1013.1 |
| 20260507001048 | 81 | 79 | 4.3 | 6.1 | 0.00 | 0.00 | 0.00 | 22 | 1013.1 |
| 20260507000543 | 82 | 166 | 4.3 | 6.1 | 0.00 | 0.00 | 0.00 | 21 | 1013.0 |
| 20260507000039 | 81 | 133 | 8.7 | 11.3 | 0.00 | 0.00 | 0.00 | 22 | 1013.1 |
| 20260506235537 | 81 | 89 | 4.3 | 6.1 | 0.00 | 0.00 | 0.00 | 22 | 1013.0 |
| 20260506235032 | 81 | 252 | 4.3 | 5.2 | 0.00 | 0.00 | 0.00 | 22 | 1013.1 |
| 20260506234530 | 81 | 221 | 3.5 | 5.2 | 0.00 | 0.00 | 0.00 | 22 | 1013.1 |
| 20260506234022 | 82 | 222 | 8.7 | 9.6 | 0.00 | 0.00 | 0.00 | 21 | 1013.0 |
| 20260506233518 | 82 | 225 | 6.1 | 7.8 | 0.00 | 0.00 | 0.00 | 21 | 1013.1 |
| 20260506233015 | 81 | 176 | 6.1 | 7.0 | 0.00 | 0.00 | 0.00 | 22 | 1013.1 |
| 20260506232511 | 82 | 212 | 9.6 | 11.3 | 0.00 | 0.00 | 0.00 | 22 | 1013.2 |
| 20260506232007 | 82 | 263 | 5.2 | 7.0 | 0.00 | 0.00 | 0.00 | 22 | 1013.2 |
| 20260506231505 | 81 | 186 | 2.6 | 3.5 | 0.00 | 0.00 | 0.00 | 22 | 1013.1 |
| 20260506231003 | 81 | 147 | 5.2 | 6.1 | 0.00 | 0.00 | 0.00 | 22 | 1013.3 |
| 20260506230458 | 81 | 204 | 2.6 | 2.6 | 0.00 | 0.00 | 0.00 | 22 | 1013.4 |
| 20260506225954 | 82 | 248 | 8.7 | 11.3 | 0.00 | 0.00 | 0.00 | 21 | 1013.4 |
| 20260506225452 | 81 | 59 | 0.9 | 1.7 | 0.00 | 0.00 | 0.00 | 22 | 1013.4 |
| 20260506224948 | 81 | 208 | 5.2 | 6.1 | 0.00 | 0.00 | 0.00 | 22 | 1013.5 |
| 20260506224446 | 82 | 168 | 8.7 | 9.6 | 0.00 | 0.00 | 0.00 | 22 | 1013.3 |
| 20260506223943 | 81 | 236 | 6.1 | 7.8 | 0.00 | 0.00 | 0.00 | 22 | 1013.3 |
| 20260506223439 | 81 | 216 | 5.2 | 6.1 | 0.00 | 0.00 | 0.00 | 22 | 1013.5 |
| 20260506222936 | 81 | 273 | 7.8 | 11.3 | 0.00 | 0.00 | 0.00 | 22 | 1013.8 |
| 20260506222433 | 81 | 323 | 1.7 | 1.7 | 0.00 | 0.00 | 0.00 | 22 | 1013.7 |
| 20260506221929 | 81 | 259 | 7.8 | 7.8 | 0.00 | 0.00 | 0.00 | 22 | 1013.7 |
| 20260506221425 | 81 | 106 | 7.0 | 7.8 | 0.00 | 0.00 | 0.00 | 23 | 1013.7 |
| 20260506220924 | 82 | 232 | 5.2 | 7.8 | 0.00 | 0.00 | 0.00 | 22 | 1013.8 |
| 20260506220419 | 81 | 206 | 5.2 | 7.8 | 0.00 | 0.00 | 0.00 | 22 | 1013.9 |
| 20260506215915 | 82 | 160 | 5.2 | 7.0 | 0.00 | 0.00 | 0.00 | 22 | 1013.9 |
| 20260506215412 | 81 | 313 | 4.3 | 6.1 | 0.00 | 0.00 | 0.00 | 22 | 1013.9 |
| 20260506214907 | 81 | 221 | 3.5 | 3.5 | 0.00 | 0.00 | 0.00 | 22 | 1014.3 |
| 20260506214404 | 81 | 253 | 6.1 | 7.0 | 0.00 | 0.00 | 0.00 | 22 | 1014.0 |